Location: Moy Burn
(57.3833°N, 4.0667°W)
Time: 10:17:09
(UTC+00:00)

Cosmos 1242 Rocket - Pass Details

Date: 08 August 2020
Orbit: 448 x 486 km, 81.2° (Epoch: 18 September)

Event Time Altitude Azimuth Distance (km) Brightness Sun altitude
Rises 22:04:26 0° 351° (N) 2,524 7.5 -11.5°
Reaches altitude 10° 22:06:52 10° 7° (N) 1,649 6.0 -11.7°
Maximum altitude 22:09:46 22° 61° (ENE) 1,085 4.3 -11.9°
Enters shadow 22:12:08 13° 108° (ESE) 1,490 4.6 -12.0°
